Probability
3 3 3 3 3 0 0 0 0 0 0 0 0 0 0 0 0 0 3 3 3 3 3 3 3 3 3 3 3 0 0 0 0 0 0 0 0 0 0 0 0 0 0
0 0 3 3 0 0 0 0 0 0 0 0 0 0 0 0 0 0 0 0 0 0 3 3 3 3 3 3 3 3 0 0 0 0 0 0 0 0 0 0 0 0 0
3 0 0 0 0 0 0 0 0 0 0 0 0 0 0 0 0 0 0 0 0 0 0 3 3 3 3 3 3 3 3 0 0 0 0 0 0 0 0 0 0 0 0
0 0 0 0 0 0 0 0 0 0 0 0 0 0 0 0 0 0 0 0 0 0 0 0 0 3 3 3 3 3 3 3 0 0 0 0 0 0 0 0 0 0 0
3 3 0 0 0 0 0 0 0 0 0 0 0 0 0 0 0 0 0 0 0 0 0 0 0 0 0 3 3 3 3 3 3 0 0 0 0 0 0 0 0 0 0
3 3 3 0 0 0 0 0 0 0 3 3 3 3 3 3 3 0 0 0 0 0 0 0 0 0 0 0 0 0 0 0 3 0 0 0 0 0 0 0 0 0 0
3 6 3 0 0 0 3 3 3 3 3 3 3 3 3 3 3 0 0 0 0 0 0 0 0 0 0 0 0 0 0 0 0 0 0 0 0 0 0 0 0 0 0
3 0 0 3 3 3 3 3 3 3 3 3 3 3 3 3 3 0 0 0 0 0 0 0 0 0 0 0 0 0 3 3 0 0 0 0 0 0 0 0 0 0 0
0 0 0 0 0 3 3 3 3 3 3 3 3 3 3 3 0 0 0 0 0 0 0 0 0 0 0 0 0 0 0 3 0 0 0 0 0 0 0 0 0 0 0
0 0 0 0 0 3 3 3 3 3 3 3 3 3 3 3 0 0 0 0 0 0 0 0 0 0 0 0 0 0 0 0 0 3 0 0 0 0 0 0 0 0 0
0 0 0 0 0 3 3 3 3 3 3 3 3 3 3 0 0 0 0 0 0 0 0 0 0 0 0 0 0 0 0 0 0 0 0 0 0 0 0 0 0 0 0
0 0 0 0 0 0 3 3 3 0 0 0 0 0 0 0 0 0 0 0 0 0 0 0 0 0 0 0 0 0 0 0 0 0 0 0 0 0 0 0 0 0 0
0 0 0 0 0 0 0 0 0 0 0 0 0 0 0 0 0 0 0 0 0 0 0 0 0 0 0 0 0 0 0 0 0 0 0 0 0 0 0 0 0 0 0
0 0 0 0 0 0 0 0 0 0 0 0 0 0 0 0 0 0 0 0 0 0 0 0 0 0 0 0 0 0 0 0 0 0 0 0 0 0 0 0 0 0 0
0 0 0 0 0 0 0 0 0 0 0 0 0 0 0 0 0 0 0 0 0 0 0 0 0 0 0 0 0 0 0 0 0 0 0 0 0 0 0 0 0 0 0
0 0 0 0 0 0 0 0 0 0 0 0 0 0 0 0 0 0 0 0 0 0 0 0 0 0 0 0 0 0 0 0 0 0 0 0 0 0 0 0 0 0 0
0 0 0 0 0 0 0 0 0 0 0 0 0 0 0 0 0 0 0 0 0 0 0 0 0 0 0 0 0 0 0 0 0 0 0 0 0 0 0 0 0 0 0
0 0 0 0 0 0 0 0 0 0 0 0 0 0 0 0 0 0 0 0 0 0 0 0 0 0 0 0 0 0 0 0 0 0 0 0 0 0 0 0 0 0 0
0 0 0 0 0 0 0 0 0 0 0 0 0 0 0 0 0 0 0 0 0 0 0 0 0 0 0 0 0 0 0 0 0 0 0 0 0 0 0 0 0 0 0
0 0 0 0 0 0 0 0 0 0 0 0 0 0 0 0 0 0 0 0 0 0 0 0 0 0 0 0 0 0 0 0 0 0 0 0 0 0 0 0 0 0 0
0 0 0 0 0 0 0 0 0 0 0 0 0 0 0 0 0 0 0 0 0 0 0 0 0 0 0 0 0 0 0 0 0 0 0 0 0 0 0 0 0 0 0
0 0 0 0 0 0 0 0 0 0 0 0 0 0 0 0 0 0 0 0 0 0 0 0 0 0 0 0 0 0 0 0 0 0 0 0 0 0 0 0 0 0 0
0 0 0 0 0 0 0 0 0 0 0 0 0 0 0 0 0 0 0 0 0 0 0 0 0 0 0 0 0 0 0 0 0 0 0 0 0 0 0 0 0 0 0
0 0 0 0 0 0 0 0 0 0 0 0 0 0 0 0 0 0 0 0 0 0 0 0 0 0 0 0 0 0 0 0 0 0 0 0 0 0 0 0 0 0 0
0 0 0 0 0 0 0 0 0 0 0 0 0 0 0 0 0 0 0 0 0 0 0 0 0 0 0 0 0 0 0 0 0 0 0 0 0 0 0 0 0 0 0
0 0 0 0 0 0 0 0 0 0 0 0 0 0 0 0 0 0 0 0 0 0 0 0 0 0 0 0 0 0 0 0 0 0 0 0 0 0 0 0 0 0 0
Height
5801 5800 5799 5798 5798 5797 5796 5795 5794 5794 5793 5793 5793 5793 5793 5793 5793 5793 5793 5793 5793 5793 5793 5792 5792 5792 5792 5792 5791 5791 5790 5790 5790 5789 5789 5789 5788 5788 5787 5787 5786 5785 5784
5797 5796 5795 5794 5793 5792 5792 5791 5790 5789 5788 5788 5788 5788 5788 5788 5788 5788 5788 5787 5787 5787 5787 5787 5787 5787 5787 5786 5786 5785 5785 5784 5784 5784 5784 5783 5783 5782 5782 5781 5780 5779 5778
5793 5792 5790 5789 5789 5788 5787 5786 5785 5784 5783 5783 5783 5783 5783 5783 5782 5782 5782 5782 5782 5781 5781 5781 5781 5781 5781 5781 5780 5780 5779 5779 5779 5778 5778 5778 5777 5776 5776 5775 5774 5773 5772
5788 5787 5786 5785 5784 5783 5782 5781 5779 5779 5778 5778 5777 5777 5777 5777 5777 5776 5776 5776 5776 5775 5775 5775 5775 5775 5775 5775 5774 5774 5774 5773 5773 5773 5772 5772 5771 5770 5769 5769 5768 5767 5766
5783 5782 5781 5780 5778 5777 5776 5775 5774 5774 5773 5772 5772 5772 5771 5771 5771 5770 5770 5770 5770 5769 5769 5769 5769 5769 5769 5769 5768 5768 5768 5767 5767 5766 5766 5765 5765 5764 5763 5762 5762 5761 5760
5778 5777 5775 5774 5773 5772 5771 5770 5769 5768 5767 5767 5766 5766 5765 5765 5765 5764 5764 5764 5763 5763 5763 5762 5762 5762 5762 5762 5762 5762 5762 5761 5760 5760 5759 5759 5758 5757 5757 5756 5755 5754 5754
5773 5771 5770 5769 5768 5766 5766 5765 5764 5763 5762 5761 5761 5760 5760 5759 5759 5758 5758 5757 5757 5756 5756 5756 5756 5756 5756 5756 5755 5755 5755 5754 5753 5753 5752 5752 5751 5750 5749 5748 5747 5747 5746
5767 5765 5764 5763 5762 5761 5760 5759 5758 5757 5757 5756 5755 5755 5754 5754 5753 5752 5751 5751 5750 5750 5749 5749 5749 5749 5749 5749 5749 5748 5748 5747 5746 5746 5745 5744 5743 5742 5741 5741 5740 5740 5739
5762 5760 5758 5757 5756 5756 5755 5754 5753 5752 5751 5750 5749 5749 5748 5748 5746 5745 5744 5744 5743 5743 5743 5742 5742 5742 5742 5741 5741 5741 5740 5740 5739 5738 5737 5736 5735 5734 5734 5733 5733 5732 5732
5756 5754 5753 5752 5751 5750 5749 5748 5747 5746 5745 5744 5743 5743 5742 5741 5740 5739 5738 5737 5737 5737 5736 5736 5735 5735 5734 5733 5733 5733 5733 5732 5731 5730 5730 5729 5728 5727 5726 5725 5725 5724 5724
5750 5749 5747 5746 5745 5744 5743 5742 5741 5740 5739 5738 5737 5737 5736 5735 5734 5733 5731 5731 5730 5730 5729 5729 5728 5727 5726 5726 5725 5725 5724 5724 5723 5722 5722 5721 5720 5719 5718 5717 5716 5715 5715
5744 5743 5741 5740 5738 5737 5736 5735 5734 5733 5732 5731 5730 5730 5729 5728 5727 5726 5725 5724 5723 5722 5722 5721 5720 5719 5718 5717 5717 5716 5716 5715 5714 5713 5713 5712 5711 5710 5709 5708 5707 5706 5706
5737 5736 5735 5734 5732 5731 5730 5728 5727 5726 5725 5724 5723 5722 5722 5721 5720 5719 5718 5717 5716 5715 5714 5713 5712 5711 5710 5709 5709 5708 5707 5706 5705 5705 5704 5703 5702 5701 5699 5699 5698 5697 5696
5731 5729 5728 5727 5726 5725 5723 5722 5721 5719 5718 5717 5716 5715 5715 5714 5713 5712 5711 5709 5708 5707 5706 5705 5704 5703 5702 5701 5700 5699 5698 5697 5696 5695 5694 5693 5692 5691 5690 5689 5688 5687 5687
5724 5723 5721 5720 5719 5718 5717 5715 5714 5713 5711 5710 5709 5708 5707 5706 5705 5704 5703 5701 5700 5699 5698 5697 5695 5694 5693 5693 5692 5691 5690 5688 5687 5686 5685 5684 5683 5681 5680 5679 5678 5677 5677
5717 5716 5715 5714 5712 5711 5710 5709 5707 5706 5704 5703 5701 5700 5699 5698 5697 5696 5694 5693 5691 5690 5689 5688 5687 5686 5685 5684 5683 5682 5681 5680 5678 5677 5676 5674 5673 5672 5671 5670 5669 5668 5667
5709 5708 5707 5706 5705 5704 5703 5701 5700 5699 5697 5696 5694 5692 5691 5690 5688 5687 5685 5684 5683 5681 5680 5679 5678 5677 5676 5675 5674 5673 5672 5670 5669 5668 5666 5665 5664 5662 5661 5660 5660 5659 5658
5701 5700 5699 5698 5697 5696 5695 5693 5692 5691 5690 5688 5686 5684 5683 5681 5680 5678 5677 5675 5674 5673 5672 5671 5670 5669 5667 5666 5665 5664 5663 5661 5660 5658 5657 5656 5654 5653 5652 5651 5650 5649 5648
5692 5692 5691 5690 5688 5687 5686 5685 5683 5682 5680 5679 5678 5676 5674 5673 5671 5670 5668 5667 5666 5665 5663 5662 5661 5660 5659 5658 5656 5655 5654 5652 5651 5649 5648 5647 5645 5644 5643 5642 5640 5639 5638
5684 5683 5682 5681 5679 5678 5677 5675 5674 5673 5671 5669 5668 5667 5665 5664 5662 5661 5659 5658 5657 5656 5655 5654 5652 5651 5650 5649 5647 5646 5645 5643 5642 5641 5639 5637 5636 5634 5633 5632 5631 5630 5629
5674 5673 5672 5671 5670 5669 5667 5666 5664 5663 5662 5660 5659 5657 5655 5654 5653 5651 5650 5648 5647 5646 5645 5644 5643 5642 5641 5640 5638 5637 5635 5634 5633 5631 5630 5628 5626 5625 5624 5622 5621 5620 5619
5665 5664 5663 5662 5661 5659 5657 5656 5654 5653 5652 5651 5649 5648 5646 5645 5643 5642 5640 5639 5637 5636 5635 5635 5634 5633 5631 5630 5629 5627 5626 5624 5623 5621 5620 5618 5617 5615 5614 5613 5612 5611 5610
5656 5655 5654 5653 5651 5650 5648 5646 5645 5643 5642 5641 5640 5638 5637 5635 5634 5632 5631 5629 5628 5627 5626 5625 5624 5623 5622 5620 5619 5617 5616 5615 5614 5612 5610 5609 5608 5606 5605 5604 5603 5602 5601
5647 5646 5645 5644 5642 5640 5639 5637 5636 5634 5633 5631 5630 5628 5627 5626 5624 5622 5621 5619 5618 5617 5616 5615 5614 5613 5612 5611 5610 5608 5607 5605 5604 5602 5601 5599 5598 5597 5596 5595 5594 5593 5592
5638 5637 5636 5634 5633 5631 5630 5628 5626 5625 5623 5622 5620 5619 5617 5616 5614 5612 5611 5609 5608 5607 5606 5605 5604 5603 5603 5601 5600 5598 5597 5596 5595 5593 5592 5590 5589 5588 5587 5586 5585 5585 5584
5628 5627 5626 5625 5623 5622 5621 5619 5617 5616 5614 5612 5611 5609 5607 5606 5604 5603 5601 5600 5599 5597 5596 5595 5595 5594 5593 5591 5590 5589 5587 5586 5585 5584 5582 5581 5580 5580 5578 5577 5576 5576 5575
Wind_Speed
17 17 17 17 17 17 18 18 18 17 17 17 18 17 17 18 18 18 18 18 19 19 19 19 18 18 18 19 19 19 19 19 18 18 17 17 17 18 19 19 19 19 19
17 17 17 17 18 18 18 18 18 18 19 19 18 18 18 18 18 18 19 19 19 20 20 20 19 19 19 19 19 20 19 19 19 19 18 18 18 19 19 20 20 20 20
18 18 18 18 18 18 18 19 19 19 19 19 19 19 19 19 19 19 19 20 20 20 20 20 20 20 20 20 20 20 20 19 19 20 20 19 19 20 20 20 20 20 20
19 19 19 19 19 19 19 19 19 19 19 19 18 19 19 19 19 20 20 20 20 20 20 20 20 20 20 20 20 20 20 20 20 20 20 20 20 19 20 20 20 19 19
20 19 19 19 20 20 20 19 19 18 18 18 19 19 19 20 20 20 20 21 21 21 20 20 20 20 21 21 21 21 21 21 21 21 20 20 20 20 20 20 20 20 19
20 20 20 20 20 20 19 19 19 18 18 19 19 20 20 20 20 20 20 21 21 21 20 20 20 21 21 21 21 22 22 22 22 22 22 21 21 21 22 22 22 21 21
20 20 20 21 20 20 19 19 19 19 19 19 20 19 20 20 21 21 21 21 21 21 21 21 21 21 21 22 22 23 23 23 23 23 23 23 22 22 22 22 22 22 22
21 20 20 20 20 20 20 20 20 20 20 20 20 20 20 21 21 22 22 22 23 23 22 22 22 22 22 23 23 24 24 23 23 24 24 23 23 23 23 23 22 22 21
21 21 21 21 20 20 20 21 21 21 21 21 20 21 21 21 22 22 22 22 22 22 22 23 23 23 24 24 25 24 24 24 24 24 24 25 24 24 24 24 23 23 23
21 21 21 21 20 20 21 21 21 21 21 21 21 22 22 22 22 22 23 23 22 22 22 22 23 24 24 25 25 25 24 25 25 25 25 25 25 25 25 25 25 25 25
22 22 22 22 22 22 22 22 22 22 22 22 22 22 23 23 23 23 23 23 23 23 23 23 24 25 25 26 26 26 26 26 26 26 26 26 26 26 26 26 26 27 26
23 23 22 22 22 22 22 22 22 22 23 23 23 23 23 23 23 23 22 23 24 23 24 24 24 24 25 26 27 27 27 27 27 27 27 27 27 27 27 28 28 28 28
24 24 23 23 23 23 23 23 23 23 23 24 23 24 23 23 23 24 24 24 24 24 25 25 25 25 26 27 27 27 27 27 28 27 27 27 28 28 29 28 28 28 28
25 24 24 24 23 23 23 23 23 23 24 24 24 24 24 23 23 24 24 24 25 25 25 25 25 26 26 26 26 27 27 27 27 28 28 27 27 28 29 28 28 28 28
25 25 25 25 24 23 24 24 24 24 24 24 25 25 25 25 25 26 26 26 26 26 26 26 26 25 26 26 27 27 27 27 27 28 28 28 28 28 28 28 28 28 28
26 25 25 25 25 24 24 24 23 23 24 24 24 25 25 26 27 26 26 26 26 26 26 27 26 26 26 26 26 27 28 28 28 28 28 28 28 28 28 28 27 27 28
27 27 27 26 25 26 26 25 24 24 24 24 25 25 26 26 26 27 26 26 26 27 27 26 26 25 26 26 27 27 27 28 28 28 28 28 28 27 27 27 27 27 28
27 27 27 27 27 26 26 26 26 26 26 25 25 26 26 26 26 26 26 26 26 27 27 26 26 26 26 26 26 27 27 27 27 27 28 28 28 27 27 27 27 27 28
28 28 28 28 28 28 28 28 28 28 28 27 26 26 26 26 26 26 26 26 26 27 26 26 25 25 25 25 26 26 27 27 27 27 27 27 28 28 28 28 27 28 28
29 29 29 29 30 29 29 29 29 29 29 28 28 27 27 27 27 27 27 27 27 27 27 26 26 26 26 26 26 27 27 27 27 28 28 28 28 29 28 28 28 28 28
30 29 29 29 30 30 29 30 30 30 30 29 28 28 28 28 28 28 28 28 28 28 27 27 27 27 27 28 28 28 28 28 28 28 29 29 28 28 28 28 28 28 27
28 29 29 30 30 30 29 29 30 29 29 29 29 28 28 29 29 29 29 29 29 28 28 29 29 28 28 28 28 28 28 28 28 28 29 28 28 28 28 28 28 27 27
28 29 29 29 30 30 30 29 29 29 29 29 28 28 28 29 29 30 30 29 29 28 28 28 28 28 28 28 28 28 28 28 28 28 28 28 28 28 28 27 27 27 26
29 29 29 29 30 30 29 29 30 29 29 29 29 29 29 28 29 29 30 29 29 29 29 29 29 29 29 29 29 29 29 28 28 28 28 28 28 27 27 27 26 26 26
30 30 30 30 30 29 29 30 29 29 29 29 29 29 30 30 29 29 28 28 28 28 29 29 29 30 30 30 30 29 29 29 28 28 28 28 27 27 26 26 26 26 26
31 31 30 30 30 29 30 30 30 30 30 30 30 30 30 30 30 29 28 28 28 28 29 29 29 29 30 30 30 29 29 29 29 28 28 27 27 26 27 27 27 26 26
Wind_Direction
295 292 290 288 288 290 293 290 289 287 286 285 283 282 281 281 281 280 280 280 279 279 280 281 280 279 281 282 283 283 284 284 285 286 287 285 284 284 285 286 287 288 288
297 294 292 289 289 290 290 290 289 287 286 285 282 280 282 281 280 280 281 281 279 277 278 279 279 279 280 281 283 283 284 283 283 285 285 286 286 286 284 284 285 286 286
296 294 291 290 290 291 290 289 289 286 285 285 282 279 280 281 280 280 281 281 280 278 277 276 276 277 278 280 281 282 283 283 283 285 285 286 287 287 285 286 286 286 285
296 295 292 289 289 290 291 289 288 287 285 283 281 280 280 281 280 281 281 281 280 280 277 275 275 278 279 279 279 281 282 282 282 283 284 284 285 285 285 286 287 286 285
294 293 291 289 289 290 292 290 288 287 286 284 283 282 282 284 282 282 281 282 281 279 278 276 274 276 278 279 280 280 280 280 282 282 282 283 283 282 284 284 284 285 284
294 291 290 290 289 290 292 290 288 286 286 285 284 284 283 283 284 284 283 282 281 279 278 277 277 276 276 277 278 279 281 282 283 283 281 282 282 282 281 282 282 282 281
295 291 289 289 288 288 289 290 287 286 287 287 284 285 284 283 284 284 283 283 282 280 278 278 277 278 277 276 277 279 282 283 283 283 282 280 280 280 280 280 281 281 279
294 293 289 288 286 286 287 289 289 288 287 286 285 285 285 285 285 284 284 285 281 281 280 278 276 276 276 277 277 279 280 281 282 282 282 282 281 279 279 278 279 281 281
293 293 290 289 287 285 286 286 287 287 286 285 284 285 285 286 285 284 285 286 284 283 282 279 276 276 277 278 277 278 278 278 280 282 281 281 281 279 279 278 279 279 280
292 291 291 290 288 287 287 286 286 286 286 285 284 284 284 285 285 285 286 285 284 284 283 280 278 277 278 278 278 277 277 278 279 281 280 281 282 280 278 278 279 279 278
291 290 290 290 288 287 287 286 286 285 285 285 285 284 284 285 287 288 287 286 285 283 283 281 280 277 279 279 278 277 278 279 279 281 281 280 281 280 279 278 278 279 278
289 289 289 289 290 287 286 286 286 285 285 286 285 284 284 285 287 287 287 287 286 285 284 282 280 280 281 280 279 278 278 279 280 280 281 280 280 280 279 278 278 279 278
287 288 288 289 288 287 287 286 285 286 286 287 286 286 283 284 285 285 287 287 286 285 285 284 281 281 280 280 281 280 279 279 280 282 282 281 280 280 280 279 278 279 278
285 286 287 288 287 286 286 287 286 286 287 288 287 286 285 285 286 287 287 287 286 287 286 285 283 280 279 279 281 281 280 280 281 282 283 282 282 282 281 280 279 278 278
285 285 287 288 287 288 287 287 287 285 287 288 288 287 286 287 287 287 286 287 288 288 287 286 286 283 282 281 280 281 282 282 282 282 282 283 283 282 281 280 279 279 278
284 285 286 288 288 289 288 288 287 287 287 289 288 288 287 288 289 288 288 287 287 288 288 287 286 284 282 281 282 282 282 283 283 282 282 283 283 283 281 279 278 279 279
282 284 286 288 287 287 287 287 287 287 289 289 289 288 288 287 288 287 287 287 287 288 288 288 287 285 283 282 283 283 284 284 283 283 283 282 283 282 281 279 278 278 279
282 282 283 284 284 284 284 285 287 287 288 289 289 289 288 288 288 288 289 288 287 288 288 289 287 285 285 285 284 285 285 285 285 284 284 283 283 282 281 280 280 279 279
282 282 282 281 282 284 284 284 286 287 288 288 288 289 289 288 289 289 289 288 288 287 287 287 287 286 285 285 285 285 285 285 285 285 285 286 285 283 282 281 280 280 279
283 282 282 281 282 283 284 284 285 286 287 287 287 288 288 288 289 289 289 289 288 287 286 285 285 285 285 286 285 284 285 286 285 285 286 286 286 285 283 282 281 280 280
283 283 282 283 284 284 284 284 285 285 286 286 287 287 288 288 288 288 288 288 287 286 285 284 283 283 284 285 284 283 283 284 284 285 285 285 285 284 283 283 282 281 281
282 283 283 285 285 285 285 286 285 284 285 286 286 286 287 288 288 288 288 286 285 283 282 282 282 283 284 285 285 284 283 283 283 284 284 284 285 285 285 284 283 281 281
281 281 284 286 286 287 286 286 287 286 285 286 287 287 287 288 289 289 288 286 283 281 281 281 282 284 285 286 286 285 285 284 284 284 284 285 285 285 285 284 282 282 281
280 282 285 286 286 287 287 288 288 288 287 286 286 287 288 289 289 289 289 287 284 282 281 281 282 283 285 286 286 285 285 284 284 285 284 284 284 285 285 284 283 283 282
281 283 284 285 286 287 287 288 288 289 288 288 288 289 288 288 288 288 288 286 283 282 281 281 281 282 283 284 285 284 283 283 283 284 283 283 283 284 284 284 283 283 282
280 282 283 285 286 287 287 287 288 288 289 289 290 290 289 288 288 288 287 286 284 283 281 280 280 282 283 285 284 283 283 284 284 284 283 284 285 284 283 281 281 281 282